AO-07 1 07530U 74089B 17054.83876162 -.00000040 00000-0 28123-4 0 9996 2 07530 101.6163 25.8253 0011957 180.6947 247.7429 12.53625546934659 UO-11 1 14781U 84021B 17053.72552246 .00000160 00000-0 26075-4 0 9996 2 14781 97.7143 103.5590 0007848 205.8757 154.2065 14.82859834773381 LO-19 1 20442U 90005G 17054.73911631 .00000008 00000-0 18992-4 0 9995 2 20442 98.5673 352.4605 0012735 119.9848 240.2602 14.32849330415378 HUBBLE 1 20580U 90037B 17054.17719194 .00000678 00000-0 30977-4 0 9991 2 20580 28.4707 40.8281 0002811 32.4513 72.7644 15.08678290273040 MET-2/21 1 22782U 93055A 17054.21195184 -.00000016 00000-0 -27481-4 0 9996 2 22782 82.5482 114.0456 0023069 33.9078 24.6816 13.83797114185930 AO-27 1 22825U 93061C 17053.86149290 .00000011 00000-0 21768-4 0 9993 2 22825 98.7972 18.1307 0007590 310.7450 49.3072 14.29986519221064 IO-26 1 22826U 93061D 17054.82816262 .00000013 00000-0 22585-4 0 9991 2 22826 98.7916 19.2027 0007977 296.8882 63.1484 14.30314388221372 FO-29 1 24278U 96046B 17054.21401215 -.00000038 00000-0 40419-6 0 9997 2 24278 98.5797 312.5451 0349326 272.6689 83.4519 13.53074773 13462 NOAA-15 1 25338U 98030A 17054.52933846 .00000031 00000-0 32132-4 0 9997 2 25338 98.7850 65.1967 0010749 171.1254 189.0118 14.25778344976810 GO-32 1 25397U 98043D 17053.91417705 -.00000008 00000-0 15573-4 0 9994 2 25397 098.5985 358.7313 0001316 025.2201 334.9042 14.23615441967317 ISS 1 25544U 98067A 17054.88727694 .00003085 00000-0 53292-4 0 9999 2 25544 51.6408 243.0964 0006557 223.0397 280.2312 15.54424142 44135 NO-44 1 26931U 01043C 17054.21026887 -.00000017 00000-0 25365-4 0 9994 2 26931 67.0521 25.2679 0007267 280.5368 79.4914 14.30447690804047 SO-50 1 27607U 02058C 17054.52946120 .00000078 00000-0 31839-4 0 9996 2 27607 64.5551 112.8708 0037626 148.9681 211.3655 14.75286121762340 CO-55 1 27844U 03031E 17053.94840000 .00000074 00000-0 53144-4 0 9995 2 27844 098.6919 064.6069 0009006 323.1096 036.9461 14.22016264708045 CO-57 1 27848U 03031J 17054.55075645 .00000065 00000-0 49429-4 0 9993 2 27848 98.7015 65.4099 0009044 331.1005 28.9670 14.21633840708058 RS-22 1 27939U 03042A 17054.86451819 .00000208 00000-0 45929-4 0 9991 2 27939 97.9200 203.3796 0012161 221.3113 283.5497 14.66524543716702 NOAA-18 1 28654U 05018A 17054.56261913 .00000040 00000-0 47221-4 0 9993 2 28654 99.1910 73.9520 0014763 33.9654 326.2459 14.12326106606226 CO-58 1 28895U 05043F 17054.73728611 .00000257 00000-0 58397-4 0 9996 2 28895 97.8502 222.3457 0017795 139.5850 220.6678 14.63345749603893 CO-65 1 32785U 08021C 17054.85458739 .00000403 00000-0 49742-4 0 9999 2 32785 97.5778 84.2413 0013248 177.4427 182.6860 14.87801447478040 AAUSAT2 1 32788U 08021F 17054.82735236 .00000636 00000-0 65194-4 0 9996 2 32788 97.5732 95.0107 0012997 144.4581 215.7507 14.93694112478758 DO-64 1 32789U 08021G 17054.83870781 .00002984 00000-0 21748-3 0 9997 2 32789 97.5748 115.4073 0014243 125.1927 235.0635 15.04426283479822 CO-66 1 32791U 08021J 17054.49471754 .00000630 00000-0 70522-4 0 9990 2 32791 97.5763 87.9036 0013946 165.3273 194.8353 14.90097740478210 RS-30 1 32953U 08025A 17054.71920757 .00000019 00000-0 66954-4 0 9996 2 32953 82.5048 310.2268 0018663 170.6899 189.4531 12.43074717397328 PRISM 1 33493U 09002B 17054.89378567 .00001322 00000-0 12493-3 0 9993 2 33493 98.1847 292.4479 0017078 95.3849 264.9303 14.95476956438849 NOAA-19 1 33591U 09005A 17054.55134921 .00000119 00000-0 89677-4 0 9994 2 33591 99.0780 19.8524 0013150 229.5045 130.4981 14.12155514414613 TISAT-1 1 36799U 10035E 17054.27329808 .00000826 00000-0 91197-4 0 9996 2 36799 98.0471 174.8128 0011969 347.2070 12.8841 14.90235378358816 JUGNU 1 37839U 11058B 17054.20622892 .00000316 00000-0 26752-4 0 9999 2 37839 19.9621 61.5906 0019003 7.8183 73.5621 14.12572107277568 SRMSAT 1 37841U 11058D 17054.24539946 .00000306 00000-0 22947-4 0 9994 2 37841 19.9720 100.6906 0011626 269.9445 159.2914 14.10565338277171 AO-71 1 37854U 11061E 17054.41589259 .00001957 00000-0 11273-3 0 9995 2 37854 101.7096 230.1373 0168881 51.5820 310.0417 15.03642314289830 HRBE 1 37855U 11061F 17054.81309672 .00002117 00000-0 11898-3 0 9991 2 37855 101.7219 228.6166 0182106 56.2236 305.6171 15.02598045289768 ALMASAT-1 1 38078U 12006B 17054.86527062 .00020357 35494-5 25439-3 0 9991 2 38078 69.4393 76.1456 0328087 97.3680 266.4922 15.16492454267571 HORYU-2 1 38340U 12025D 17054.89003718 .00000390 00000-0 65711-4 0 9997 2 38340 98.3742 54.8388 0010518 295.1061 64.9055 14.75257217256584 RS-40 1 38735U 12041C 17054.84164800 .00000003 00000-0 -46562-4 0 9993 2 38735 82.4754 34.8549 0015629 276.4288 83.5011 12.42573059207613 BEESAT-3 1 39134U 13015E 17053.94773189 .00002037 00000-0 11070-3 0 9998 2 39134 064.8684 235.0500 0028691 300.1275 059.7008 15.17293700211768 BEESAT-2 1 39136U 13015G 17053.83739141 .00001842 00000-0 10870-3 0 9998 2 39136 64.8687 244.5491 0027008 299.4442 60.3988 15.14682686211952 ZACUBE-1 1 39417U 13066B 17053.74970898 .00000381 00000-0 55058-4 0 9997 2 39417 97.6459 101.4506 0057983 284.5156 74.9629 14.80623330175848 TRITON-1 1 39427U 13066M 17053.83891956 .00000408 00000-0 73602-4 0 9990 2 39427 97.6455 76.8181 0114291 355.7900 4.2334 14.67382585174277 GOMX-1 1 39430U 13066Q 17054.72575426 .00000456 00000-0 91737-4 0 9996 2 39430 97.6639 62.4261 0153019 41.8009 319.4761 14.58791555173397 LO-74 1 39440U 13066AA 17053.83388424 .00000360 00000-0 57837-4 0 9995 2 39440 97.6429 91.6208 0079694 312.0011 47.4430 14.75369531175232 AO-73 1 39444U 13066AE 17053.85274020 .00000461 00000-0 64058-4 0 9992 2 39444 97.6472 102.4578 0057148 281.2520 78.2274 14.81336839174685 SPROUT 1 39770U 14029E 17054.84645036 .00000956 00000-0 11554-3 0 9994 2 39770 97.8689 155.3813 0008678 348.8193 11.2843 14.85993291149303 DUCHIFAT-1 1 40021U 14033M 17054.18743997 .00000629 00000-0 71538-4 0 9998 2 40021 97.9235 327.1687 0012324 322.3082 37.7270 14.89730572145620 NANOSATCBR1 1 40024U 14033Q 17054.20589657 .00000513 00000-0 60416-4 0 9990 2 40024 97.9201 326.2480 0011595 323.4206 36.6218 14.89078458145589 EO-79 1 40025U 14033R 17054.32711919 .00000498 00000-0 59882-4 0 9999 2 40025 97.9188 325.5734 0011814 325.4105 34.6342 14.88309062145552 DTUSAT-2 1 40030U 14033W 17054.43812699 .00000503 00000-0 60967-4 0 9997 2 40030 97.9158 324.9109 0011137 319.0375 41.0003 14.87934993145530 EO-80 1 40032U 14033Y 17054.20633792 .00000425 00000-0 52569-4 0 9991 2 40032 97.9165 324.6870 0011103 320.3933 39.6471 14.87868627145497 ANTELSAT 1 40034U 14033AA 17053.80500038 .00000386 00000-0 65587-4 0 9994 2 40034 97.8755 301.1765 0058028 301.5827 57.9724 14.73612848144070 VELOX-1 1 40057U 14034E 17054.82929721 .00000408 00000-0 65415-4 0 9992 2 40057 98.1851 153.3815 0012243 64.8943 295.3537 14.77007029143023 DAURIA DX 1 1 40071U 14037C 17054.89574680 .00000177 00000-0 30315-4 0 9992 2 40071 98.3291 161.5373 0009805 61.5055 298.7138 14.80962410142208 UKUBE-1 1 40074U 14037F 17054.83969072 .00000489 00000-0 66694-4 0 9997 2 40074 98.3359 164.7561 0005794 64.4890 295.6917 14.83382060142371 HODOYOSHI-1 1 40299U 14070B 17054.85725719 .00001177 00000-0 54492-4 0 9991 2 40299 97.4098 139.3032 0014584 125.1323 328.9855 15.22003670127706 CHUBUSAT-1 1 40300U 14070C 17054.84875041 .00001273 00000-0 60915-4 0 9991 2 40300 97.4035 136.7965 0021801 134.7357 320.2415 15.20578262127562 QSAT-EOS 1 40301U 14070D 17054.85648749 .00002951 00000-0 12856-3 0 9990 2 40301 97.3971 136.5749 0029209 132.9054 320.7294 15.22608243127580 FIREBIRD FU3 1 40377U 15003B 17054.07876725 .00002123 00000-0 95185-4 0 9999 2 40377 99.1119 215.3977 0138607 20.6399 340.0350 15.14599484113731 FIREBIRD FU4 1 40378U 15003C 17054.73318978 .00002826 00000-0 12488-3 0 9998 2 40378 99.1122 216.2099 0138740 18.4007 342.2167 15.14625681113830 GRIFEX 1 40379U 15003D 17054.74007943 .00001978 00000-0 93456-4 0 9999 2 40379 99.1136 214.4676 0144166 24.5517 336.2484 15.12372992113736 NO-83 1 40655U 15025E 17053.35574925 .00026789 00000-0 43880-3 0 04105 2 40655 054.9840 011.6618 0160974 348.3906 011.3431 15.39040967062516 NO-84 1 40654U 15025D 17053.38033181 .00017271 00000-0 33489-3 0 03683 2 40654 054.9972 028.9373 0187354 338.5191 020.8044 15.31040739062297 DEORBITSAIL 1 40719U 15032E 17054.50192959 .00000619 00000-0 97300-4 0 9998 2 40719 97.9936 309.6056 0017127 144.9300 215.3040 14.75914971 87552 NUDT-PHONESAT 1 40900U 15049B 17054.73952131 .00003896 00000-0 19090-3 0 9998 2 40900 97.4446 64.3202 0012621 260.0760 99.9050 15.18673219 79235 XW-2A 1 40903U 15049E 17054.81516485 .00003927 00000-0 10676-3 0 9994 2 40903 97.4316 79.1058 0013897 318.2304 41.7879 15.38079639 80215 XW-2C 1 40906U 15049H 17054.85751944 .00001307 00000-0 74872-4 0 9991 2 40906 97.4553 62.6320 0013860 244.5796 115.4002 15.14275708 79085 XW-2D 1 40907U 15049J 17054.84801554 .00001390 00000-0 79261-4 0 9993 2 40907 97.4521 62.4153 0013242 242.5130 117.4757 15.14361673 79083 LILACSAT-2 1 40908U 15049K 17054.73545072 .00000738 00000-0 45437-4 0 9995 2 40908 97.4622 62.1804 0014832 240.1784 119.7973 15.12959354 79016 XW-2F 1 40910U 15049M 17054.84568507 .00002015 00000-0 11085-3 0 9999 2 40910 97.4545 62.9229 0014146 240.6460 119.3360 15.15120726 78994 XW-2B 1 40911U 15049N 17054.85151256 .00001365 00000-0 77970-4 0 9993 2 40911 97.4566 62.7357 0013141 242.8233 117.1660 15.14330152 78987 DCBB 1 40912U 15049P 17054.72913811 .00002056 00000-0 10671-3 0 9995 2 40912 97.4532 64.3205 0014248 234.1127 214.1449 15.17173639 79089 TW-1C 1 40926U 15051B 17054.81286265 .00008496 00000-0 20934-3 0 9996 2 40926 97.2446 95.3066 0011332 214.0755 233.5663 15.40752462 79457 TW-1A 1 40928U 15051D 17054.90783887 .00004441 00000-0 13243-3 0 9991 2 40928 97.2412 92.7428 0011258 243.5072 240.0832 15.35111980 79315 IO-86 1 40931U 15052B 17053.68460105 .00000633 00000-0 -83435-6 0 9998 2 40931 6.0016 329.1148 0012788 60.3882 299.7639 14.76511162 76016 GomX-3 1 40949U 98067HA 16292.18357804 .08527750 12374-4 77882-3 0 9992 2 40949 51.6055 106.7696 0006699 286.1344 73.8944 16.38002265 59645 LQSat 1 40958U 15057A 17054.87009443 .00000036 00000-0 13428-4 0 9997 2 40958 97.9878 132.1164 0019638 70.1882 290.1428 14.72943977 74434 AO-85 1 40967U 15058D 17053.41199308 .00000546 00000-0 81816-4 0 04051 2 40967 064.7756 206.9987 0175491 120.5066 241.3546 14.75323041060181 ATHENOXAT-1 1 41168U 15077C 17054.90620370 .00003021 00000-0 13581-3 0 9991 2 41168 14.9894 276.7568 0012841 247.0424 309.7614 15.11130822 65877 ChubuSat-2 1 41338U 16012B 17054.20540380 .00000528 00000-0 34942-4 0 9999 2 41338 31.0032 116.1186 0013993 11.1594 348.9350 14.99649122 55863 ChubuSat-3 1 41339U 16012C 17054.48222327 .00000520 00000-0 34181-4 0 9995 2 41339 31.0108 113.6910 0013780 19.8206 340.2966 14.99862018 55885 Horyu-4 1 41340U 16012D 17053.50504532 .00000916 00000-0 64285-4 0 9997 2 41340 31.0051 118.1259 0014348 17.8322 342.2815 15.00444248 55775 OUFTI-1 1 41458U 16025C 17054.85990638 .00002906 00000-0 16159-3 0 9993 2 41458 98.1995 85.9097 0174238 308.6570 49.9169 15.02602807 45555 e-st@r-II 1 41459U 16025D 17054.20450354 .00003175 00000-0 17615-3 0 9996 2 41459 98.1997 85.1850 0175024 311.0095 47.6107 15.02483398 45459 AAUSAT4 1 41460U 16025E 17054.86061338 .00003635 00000-0 20201-3 0 9996 2 41460 98.1921 85.9347 0168111 307.6177 50.9869 15.03167246 45564 MinXSS 1 41474U 98067HU 17054.53825078 .00064139 00000-0 35915-3 0 9994 2 41474 51.6428 222.3080 0001580 325.5657 34.5241 15.78708499 44322 CADRE 1 41475U 98067HV 17003.74787607 .12518598 12537-4 55989-3 0 9998 2 41475 51.6110 110.0165 0004040 312.3134 47.7551 16.43344525 36494 NODES 1 1 41477U 98067HX 17053.74185976 .00044900 00000-0 36802-3 0 9995 2 41477 51.6337 232.6698 0001317 337.3620 22.7319 15.70026801 44026 NODES 2 1 41478U 98067HY 17054.71323676 .00044997 00000-0 37077-3 0 9996 2 41478 51.6337 227.9050 0001345 342.5456 17.5494 15.69898278 44177 LO-87 1 41557U 16033B 17054.83019015 .00002596 00000-0 10180-3 0 9994 2 41557 97.4724 134.3400 0015686 51.9924 308.2728 15.26567961 41135 NuSat2 1 41558U 16033C 17054.72289212 .00002691 00000-0 10586-3 0 9997 2 41558 97.4750 134.2671 0015117 51.2572 309.0015 15.26443236 41119 Lapan A3 1 41603U 16040E 17054.89367730 .00000413 00000-0 22805-4 0 9994 2 41603 97.4766 118.1411 0015037 106.6000 340.8370 15.19267578 37456 Swayam 1 41607U 16040J 17054.41249382 .00002787 00000-0 13134-3 0 9998 2 41607 97.4759 117.7643 0016160 112.3989 247.8960 15.20236967 37318 Pratham 1 41783U 16059A 17054.20374114 .00000068 00000-0 22640-4 0 9995 2 41783 98.1825 116.6719 0034276 156.3124 203.9665 14.62806310 21930 AlSat 1N 1 41789U 16059G 17054.76463961 .00000108 00000-0 29697-4 0 9995 2 41789 98.1821 117.5113 0029253 148.8089 211.4843 14.64009644 22014 ScatSat 1 41790U 16059H 17054.20429458 .00000026 00000-0 17615-4 0 9995 2 41790 98.0819 108.9825 0012274 133.8633 226.3578 14.50094808 21740 TY-1 1 41844U 16066D 17054.72774611 -.00000070 00000-0 00000 0 0 9999 2 41844 97.4061 63.6189 0014505 280.7555 166.5961 15.21698885 16082 CAS-2T 1 41845U 16066E 17054.74842744 -.00000074 00000-0 00000 0 0 9999 2 41845 98.7810 67.6467 0366015 224.7675 132.3436 14.37701924 15193 Pegasus-1 1 41846U 16066F 17054.67161974 -.00000074 00000-0 00000 0 0 9991 2 41846 98.7826 67.4593 0369188 225.8115 131.2188 14.36883994 15171 STARS-C 1 41895U 98067KR 17054.04196260 .00019038 00000-0 27171-3 0 9994 2 41895 51.6423 246.7540 0005930 229.0916 130.9566 15.56288725 10183 Tancredo 1 1 41931U 98067KT 17053.85538400 .00035191 00000-0 47986-3 0 9993 2 41931 51.6429 247.7565 0010532 200.6930 159.3643 15.57105498 5724 ITF-2 1 41932U 98067KU 17053.81001787 .00012686 00000-0 18755-3 0 9999 2 41932 51.6411 248.2072 0007686 196.5876 163.4859 15.55681443 5714 AOBA-V3LOX3 1 41935U 98067KX 17054.51792076 .00015888 00000-0 23297-3 0 9992 2 41935 51.6433 244.6792 0007062 200.5248 159.5517 15.55691469 5926 OSNSAT 1 41939U 98067KZ 17054.82473654 .00027417 00000-0 38238-3 0 9990 2 41939 51.6419 242.9731 0010957 208.8186 151.2240 15.56626632 5223 Nayif-1 1 60000U 17008XX 17051.92295152 .00001762 00000-0 80428-4 0 9993 2 60000 097.5107 113.5513 0006476 260.5747 099.4743 15.22401676 842 /EX